Home > Weather > Perpignan > Past weeks

Flag for France Past Weather in Perpignan, Languedoc-Roussillon, France — Yesterday and Last 2 Weeks

Now
84 °F

Sunny.


Feels Like: 83 °F
Forecast: 58 / 84 °F
Wind: 12 mph from East

Location: Perpignan Airport

Current Time: Aug 25, 2016 at 1:40:57 PM

Latest Report: Aug 25, 2016 at 1:00 PM


Visibility: 10 mi

Pressure: 30.07 "Hg

Humidity: 40%

Dew Point: 57 °F

Location of PerpignanLocation

Past Weather in Perpignan — Graph

°F

Perpignan Temperature Yesterday

Maximum temperature yesterday: 82 °F (at 2:30 PM)
Minimum temperature yesterday: 63 °F (at 4:30 AM)
Average temperature yesterday: 73 °F

High & Low Weather Summary for the Past Weeks

 TemperatureHumidityPressure
High90 °F (Aug 22, 1:30 PM)94% (Aug 16, 2:30 AM)30.27 "Hg (Aug 16, 2:30 AM)
Low61 °F (Aug 13, 6:00 AM)9% (Aug 22, 1:30 PM)29.83 "Hg (Aug 17, 3:30 PM)
Average74 °F56%30.08 "Hg
* Reported Aug 10 12:00 PM — Aug 25 12:30 PM, Perpignan, Weather by CustomWeather, © 2016

Note: Actual official high and low records may vary slightly from our data, if they occured in-between our weather recording intervals... More about our weather records

Advertising

Perpignan Weather History for the Previous 24 Hours

Scroll right to see more
 ConditionsComfort  
Time TempWeatherWind HumidityBarometerVisibility
12:30 PM
Thu, Aug 25
82 °FSunny.10 mph42%30.07 "Hg10 mi
12:00 PM81 °FPassing clouds.9 mph54%30.07 "HgN/A
11:30 AM81 °FSunny.9 mph54%30.07 "Hg10 mi
11:00 AM79 °FSunny.7 mph58%30.07 "Hg10 mi
10:30 AM77 °FPassing clouds.7 mph69%30.07 "HgN/A
10:00 AM75 °FPassing clouds.8 mph74%30.07 "HgN/A
9:30 AM73 °FPassing clouds.6 mph74%30.07 "HgN/A
9:00 AM72 °FPartly sunny.3 mph78%30.07 "HgN/A
8:30 AM66 °FPartly sunny.No wind88%30.07 "HgN/A
8:00 AM64 °FClear.No wind88%30.07 "Hg10 mi
7:30 AM63 °FClear.No wind83%30.07 "Hg10 mi
7:00 AM63 °FClear.5 mph83%30.07 "Hg10 mi
6:30 AM63 °FClear.5 mph83%30.04 "Hg10 mi
6:00 AM63 °FClear.5 mph83%30.04 "Hg10 mi
5:30 AM63 °FClear.2 mph83%30.04 "Hg10 mi
5:00 AM64 °FClear.1 mph78%30.04 "Hg10 mi
4:30 AM64 °FClear.No wind78%30.04 "Hg10 mi
4:00 AM64 °FClear.2 mph78%30.04 "Hg10 mi
3:30 AM64 °FClear.No wind73%30.04 "Hg10 mi
3:00 AM64 °FClear.1 mph73%30.04 "Hg10 mi
2:30 AM66 °FClear.3 mph68%30.04 "Hg10 mi
2:00 AM66 °FClear.3 mph68%30.04 "Hg10 mi
1:30 AM66 °FClear.2 mph73%30.04 "Hg10 mi
1:00 AM68 °FClear.2 mph69%30.04 "Hg10 mi
12:30 AM70 °FClear.3 mph64%30.04 "Hg10 mi
12:00 AM70 °FClear.3 mph64%30.04 "Hg10 mi
11:30 PM
Wed, Aug 24
72 °FClear.6 mph65%30.04 "Hg10 mi
11:00 PM72 °FClear.7 mph65%30.04 "Hg10 mi
10:30 PM72 °FClear.6 mph65%30.04 "Hg10 mi
10:00 PM73 °FClear.8 mph65%30.04 "Hg10 mi
9:30 PM73 °FSunny.10 mph69%30.04 "Hg10 mi
9:00 PM73 °FSunny.10 mph69%30.04 "Hg10 mi
8:30 PM75 °FSunny.12 mph65%30.04 "Hg10 mi
8:00 PM77 °FSunny.12 mph61%30.04 "Hg10 mi
7:30 PM79 °FSunny.13 mph54%30.04 "Hg10 mi
7:00 PM81 °FSunny.12 mph48%30.04 "Hg10 mi
6:30 PM82 °FPassing clouds.12 mph48%30.04 "HgN/A
6:00 PM82 °FSunny.13 mph48%30.04 "Hg10 mi
5:30 PM82 °FSunny.12 mph45%30.07 "Hg10 mi
5:00 PM82 °FSunny.14 mph48%30.07 "Hg10 mi
4:30 PM82 °FSunny.16 mph48%30.07 "Hg10 mi
4:00 PM82 °FSunny.15 mph51%30.07 "Hg10 mi
3:30 PM82 °FSunny.15 mph51%30.09 "Hg10 mi
3:00 PM82 °FPassing clouds.14 mph55%30.09 "HgN/A
2:30 PM82 °FSunny.13 mph58%30.09 "Hg10 mi
2:00 PM81 °FPassing clouds.12 mph58%30.09 "HgN/A
1:30 PM81 °FPassing clouds.12 mph54%30.12 "HgN/A
1:00 PM79 °FPassing clouds.10 mph58%30.12 "HgN/A
Weather by CustomWeather, © 2016

See weather overviewHow to use our weather pages